THORAD DELTA 1 DEB, 8158

Orbit data source: Space-Track

THORAD DELTA 1 DEB, 8158 is space debris in SSO originally from a launch on Fri, 15 Nov 1974 UTC launched from the Air Force Western Test Range (AFWTR). Debris objects in space refer to the collection of defunct objects orbiting the Earth. Examples of debris include non-operational satellites, rocket bodies, and fragments generated from explosions, collisions, or faulty payload assembly.

Loading next visibility...
Identifier
8158, 1974-089Y
Orbit
SSO
Country
Flag of USUS
Related business
Manufacturer
Unknown
Mission
Spacecraft
Bus & Motor
Unknown
Mass
Unknown
Launch date (UTC)
1974-11-15 (51 years ago)
Launch vehicle
Unknown
Launch site
Air Force Western Test Range (AFWTR)
Object type
Payload
Rocket body
Debris
Shape & HBR
Unknown shape, 0.1 m
Radar Cross Section
Small (<0.1 m²)

Expand to show TLE details & history
Last TLE update: 1 day ago

TLE from 1 day ago
0 THORAD DELTA 1 DEB
1 08158U 74089Y   25349.66560038 -.00000004  00000-0  22486-3 0  9997
2 08158 101.4295  58.7417 0063473 220.2739 295.1046 12.61661032350582
Epoch: 2025-12-15T15:58Z
TLE epoch observation values (Epoch: 2025-12-15T15:58:27.872Z)
Latitude
24.77455°
Longitude
-80.10801°
Altitude
1,398.084 km
Speed
7.172 km/s
True Right ascension
16h 16m 16s
True Declination
24° 39' 17"
Sunlit
Object was in daylight at epoch
Visualization orbit readout
Latitude
Unknown
Longitude
Unknown
Altitude
Unknown
Speed
Unknown
Apparent Right ascension
Unknown
Apparent Declination
Unknown
Sunlit
N/A
Visualization observer readout
Local Sidereal Time
22:33:45
Azimuth
Unknown
Elevation
Unknown
Doppler factor
Unknown
Orbital elements
Apogee altitude
1,463.065 km
Perigee altitude
1,364.152 km
Semi-major axis
7,791.746 km
Eccentricity
0.00635
Inclination
101.4295°
RAAN
58.7417°
Arg. of periapsis
220.2739°
True anomaly
294.44375°
Mean anomaly
295.1046°
Eccentric anomaly
294.7744°
Mean motion
3.15567 °/min
Orbital period
114.08 mins
BSTAR
0.00022486
Loading maneuver chart data...
Computing Atmospheric mass density...

Documentation

Showing up to 5 results
|